Regional Weather Roundup
Issued by NWS

Home | Current Version | Previous Version | Graphics & Text | Print | Product List | Glossary On
Versions: 1 2 3 4 5 6 7 8 9 10 11 12 13 14 15 16 17 18 19 20 21 22 23 24 25 26 27 28 29 30 31 32 33 34 35 36 37 38 39 40 41 42 43 44 45 46 47 48 49 50
000
ASUS45 KBOI 250310
RWRID
WEATHER ROUNDUP FOR IDAHO
NATIONAL WEATHER SERVICE BOISE ID
900 PM MDT THU JUL 24 2014

NOTE: "FAIR" INDICATES FEW OR NO CLOUDS BELOW 12000 FEET
WITH NO SIGNIFICANT WEATHER AND/OR OBSTRUCTIONS TO VISIBILITY

IDZ012-014-250400-
SOUTHWEST IDAHO


CITY           SKY/WX    TMP DP  RH WIND       PRES   REMARKS
BOISE          CLEAR     73  27  18 NW8       30.06F
CALDWELL       CLEAR     72  37  28 N3        30.07F
MOUNTAIN HOME  CLEAR     72  24  16 NW14      30.05R
$$

IDZ016-017-250400-
SOUTHCENTRAL IDAHO


CITY           SKY/WX    TMP DP  RH WIND       PRES   REMARKS
BURLEY         CLEAR     65  33  30 SW9       30.07S
JEROME         CLEAR     65  27  23 SW5       30.07F
TWIN FALLS     CLEAR     68  27  21 W9        30.08F
$$

IDZ019>023-250400-
SOUTHEAST IDAHO


CITY           SKY/WX    TMP DP  RH WIND       PRES   REMARKS
IDAHO FALLS    CLEAR     70  32  24 S22G30    30.04F
POCATELLO      CLEAR     68  39  34 SW16      30.08S
REXBURG        CLEAR     67  33  28 S15G22    30.04S
$$

IDZ006-010-011-018-031-032-250400-
CENTRAL IDAHO MOUNTAINS


CITY           SKY/WX    TMP DP  RH WIND       PRES   REMARKS
MCCALL         CLEAR     63  25  23 W6        30.15S
HAILEY         CLEAR     63  37  39 SE12      30.11R
STANLEY          N/A     55  23  28 CALM      30.19R
SALMON         CLEAR     68  30  24 N13       29.97R
CHALLIS        CLEAR     71  15  11 W9        30.05R
$$

IDZ002-004-006-007-026-250400-
NORTHERN IDAHO


CITY           SKY/WX    TMP DP  RH WIND       PRES   REMARKS
LEWISTON       CLEAR     73  41  31 NW10      30.06R
LOWELL           N/A     65  45  48 CALM      30.08R
COEUR D`ALENE  PTCLDY    63  45  51 SW7       30.07R
MULLAN PASS    CLOUDY    45  38  76 SW6       30.18S
$$


USA.gov is the U.S. government's official web portal to all federal, state and local government web resources and services.